GW3060 Weather Reports


Display with metric or nautical units.
time (UTC)temp
F
wind
direction
speed
MPH
gust
MPH
rain 1hr
in
rain 24hr
in
rain mn
in
humidity
%
barometer
mb
20260502233518 55 248 0.0 0.0 0.00 0.00 0.00 73 1012.3
20260502233018 55 248 0.0 0.0 0.00 0.00 0.00 70 1012.2
20260502232518 55 248 0.0 0.0 0.00 0.00 0.00 70 1012.1
20260502232018 55 248 0.0 0.0 0.00 0.00 0.00 70 1012.0
20260502231518 55 248 0.0 0.0 0.00 0.00 0.00 69 1011.9
20260502231019 55 248 0.0 0.0 0.00 0.00 0.00 68 1011.9
20260502230518 56 248 0.0 0.0 0.00 0.00 0.00 69 1011.8
20260502230018 56 248 0.0 0.0 0.00 0.00 0.00 66 1011.9
20260502225518 56 248 0.0 0.0 0.00 0.00 0.00 65 1011.8
20260502225019 56 248 0.0 0.0 0.00 0.00 0.00 63 1011.8
20260502224518 56 248 0.0 0.0 0.00 0.00 0.00 62 1011.7
20260502224030 56 248 0.0 0.0 0.00 0.00 0.00 61 1011.7
20260502223508 57 248 0.0 0.0 0.00 0.00 0.00 60 1011.6
20260502223008 57 248 0.0 0.0 0.00 0.00 0.00 57 1011.5
20260502222508 57 248 0.0 0.0 0.00 0.00 0.00 57 1011.4
20260502222008 57 248 0.0 0.0 0.00 0.00 0.00 56 1011.3
20260502221508 57 248 0.0 2.0 0.00 0.00 0.00 56 1011.2
20260502221008 57 248 0.0 3.0 0.00 0.00 0.00 56 1011.1
20260502220508 58 248 1.0 3.0 0.00 0.00 0.00 53 1011.1
20260502220008 58 248 1.0 3.0 0.00 0.00 0.00 53 1011.1
20260502215508 58 348 1.0 2.0 0.00 0.00 0.00 54 1011.0
20260502215008 58 264 0.0 1.0 0.00 0.00 0.00 51 1011.0
20260502214508 58 264 0.0 2.0 0.00 0.00 0.00 54 1011.0
20260502214019 58 264 1.0 2.0 0.00 0.00 0.00 53 1011.0
20260502213508 58 264 1.0 3.0 0.00 0.00 0.00 54 1010.9
20260502213019 58 265 0.0 4.0 0.00 0.00 0.00 50 1011.0
20260502212519 58 237 1.0 4.0 0.00 0.00 0.00 51 1010.9
20260502212008 58 254 2.0 3.0 0.00 0.00 0.00 52 1010.9
20260502211508 58 306 1.0 3.0 0.00 0.00 0.00 51 1011.0
20260502211008 58 306 1.0 3.0 0.00 0.00 0.00 50 1011.0
20260502210530 58 272 0.0 2.0 0.00 0.00 0.00 49 1011.0
20260502210008 58 273 1.0 2.0 0.00 0.00 0.00 50 1011.1
20260502205508 58 274 0.0 2.0 0.00 0.00 0.00 52 1011.1
20260502205008 58 274 1.0 3.0 0.00 0.00 0.00 50 1011.0
20260502204508 58 274 2.0 3.0 0.00 0.00 0.00 54 1011.0
20260502204008 57 14 1.0 3.0 0.00 0.00 0.00 49 1011.1
20260502203508 58 33 1.0 2.0 0.00 0.00 0.00 55 1011.3
20260502203008 57 10 1.0 2.0 0.00 0.00 0.00 55 1011.3
20260502202531 57 6 0.0 2.0 0.00 0.00 0.00 48 1011.3
20260502202008 57 6 1.0 2.0 0.00 0.00 0.00 49 1011.4
20260502201508 57 333 1.0 2.0 0.00 0.00 0.00 53 1011.4
20260502201008 57 347 0.0 4.0 0.00 0.00 0.00 51 1011.4
20260502200508 57 347 2.0 4.0 0.00 0.00 0.00 46 1011.6
20260502200008 57 333 1.0 3.0 0.00 0.00 0.00 51 1011.7
20260502195508 57 327 1.0 4.0 0.00 0.00 0.00 51 1011.8
20260502195019 57 285 2.0 4.0 0.00 0.00 0.00 48 1011.9
20260502194508 57 338 2.0 4.0 0.00 0.00 0.00 49 1012.0
20260502194008 57 308 1.0 4.0 0.00 0.00 0.00 50 1012.1
20260502193531 57 19 1.0 3.0 0.00 0.00 0.00 51 1012.1
20260502193008 57 331 1.0 4.0 0.00 0.00 0.00 50 1012.1
20260502192508 57 252 2.0 4.0 0.00 0.00 0.00 50 1012.1
20260502192008 57 331 1.0 4.0 0.00 0.00 0.00 54 1012.2
20260502191509 56 356 2.0 6.0 0.00 0.00 0.00 52 1012.2
20260502191019 56 196 1.0 6.0 0.00 0.00 0.00 56 1012.3
20260502190508 56 294 0.0 5.0 0.00 0.00 0.00 50 1012.3
20260502190008 56 305 2.0 5.0 0.00 0.00 0.00 48 1012.4
20260502185508 56 244 1.0 3.0 0.00 0.00 0.00 52 1012.5
20260502185008 55 301 1.0 2.0 0.00 0.00 0.00 60 1012.7
20260502184519 55 300 0.0 3.0 0.00 0.00 0.00 59 1012.7
20260502184008 54 298 1.0 3.0 0.00 0.00 0.00 54 1012.8
20260502183510 54 238 0.0 3.0 0.00 0.00 0.00 59 1012.7
20260502183019 54 286 1.0 3.0 0.00 0.00 0.00 57 1012.7
20260502182508 54 263 1.0 3.0 0.00 0.00 0.00 55 1012.8
20260502182008 54 223 1.0 4.0 0.00 0.00 0.00 58 1012.7
20260502181508 54 333 2.0 6.0 0.00 0.00 0.00 56 1012.8
20260502181008 54 322 2.0 6.0 0.00 0.00 0.00 58 1012.7
20260502180508 54 321 1.0 6.0 0.00 0.00 0.00 60 1012.7
20260502170508 54 331 1.0 3.0 0.00 0.00 0.00 60 1013.4
20260502164008 53 302 1.0 4.0 0.00 0.00 0.00 62 1013.7
20260502163508 53 302 1.0 4.0 0.00 0.00 0.00 61 1013.8
20260502163019 53 276 1.0 5.0 0.00 0.00 0.00 61 1014.0
20260502162508 53 311 2.0 6.0 0.00 0.00 0.00 60 1014.0
20260502162008 53 287 3.0 6.0 0.00 0.00 0.00 59 1014.2
20260502161531 53 325 1.0 3.0 0.00 0.00 0.00 63 1014.1
20260502161009 53 323 1.0 6.0 0.00 0.00 0.00 62 1014.2
20260502160509 53 321 1.0 6.0 0.00 0.00 0.00 64 1014.3
20260502152009 52 283 1.0 3.0 0.00 0.00 0.00 64 1014.3
20260502151509 52 282 1.0 3.0 0.00 0.00 0.00 62 1014.4
20260502151009 52 240 1.0 4.0 0.00 0.00 0.00 62 1014.4
20260502150520 52 200 0.0 4.0 0.00 0.00 0.00 63 1014.3
20260502130509 52 295 0.0 3.0 0.00 0.00 0.00 73 1014.0
20260502123509 52 290 0.0 2.0 0.00 0.00 0.00 76 1013.2
20260502123009 52 290 0.0 1.0 0.00 0.00 0.00 77 1013.2
20260502122509 52 290 0.0 3.0 0.00 0.00 0.00 76 1013.3
20260502122009 52 290 0.0 3.0 0.00 0.00 0.00 78 1013.3
20260502121509 52 290 1.0 3.0 0.00 0.00 0.00 77 1013.4
20260502121009 52 281 0.0 1.0 0.00 0.00 0.00 78 1013.4
20260502120509 52 281 0.0 1.0 0.00 0.00 0.00 78 1013.3
20260502115509 51 281 1.0 3.0 0.00 0.00 0.00 77 1013.4
20260502115009 51 282 1.0 7.0 0.00 0.00 0.00 77 1013.3
20260502114509 51 281 1.0 7.0 0.00 0.00 0.00 80 1013.0
20260502114009 51 307 0.0 1.0 0.00 0.00 0.00 82 1013.0
20260502113509 51 307 0.0 1.0 0.00 0.00 0.00 81 1013.1
20260502113020 51 306 0.0 1.0 0.00 0.00 0.00 82 1013.2
20260502112509 51 306 0.0 1.0 0.00 0.00 0.00 83 1013.1
20260502112009 51 343 0.0 1.0 0.00 0.00 0.00 83 1013.1
20260502111509 50 346 0.0 2.0 0.00 0.00 0.00 85 1013.0
20260502111009 50 346 0.0 2.0 0.00 0.00 0.00 84 1013.0
20260502110509 50 346 1.0 2.0 0.00 0.00 0.00 86 1013.1
20260502110009 50 357 0.0 1.0 0.00 0.00 0.00 87 1013.1
20260502105509 50 357 0.0 1.0 0.00 0.00 0.00 87 1012.9
20260502105009 50 357 0.0 0.0 0.00 0.00 0.00 87 1012.8
20260502104509 50 357 0.0 0.0 0.00 0.00 0.00 87 1013.0
20260502104009 50 357 0.0 0.0 0.00 0.00 0.00 87 1013.0
20260502103510 50 357 0.0 0.0 0.00 0.00 0.00 87 1013.0
20260502103009 50 357 0.0 0.0 0.00 0.00 0.00 89 1013.1
20260502102509 50 357 0.0 0.0 0.00 0.00 0.00 90 1013.2
20260502102020 50 357 0.0 0.0 0.00 0.00 0.00 90 1013.1
20260502101509 50 357 0.0 0.0 0.00 0.00 0.00 90 1013.1
20260502101009 50 357 0.0 0.0 0.00 0.00 0.00 89 1013.2
20260502100509 50 357 0.0 0.0 0.00 0.00 0.00 89 1013.2
20260502091509 50 357 0.0 0.0 0.00 0.00 0.00 91 1013.2
20260502091009 50 357 0.0 0.0 0.00 0.00 0.00 91 1013.1
20260502090509 50 357 0.0 0.0 0.00 0.00 0.00 92 1012.9
20260502071510 51 357 0.0 0.0 0.00 0.00 0.00 89 1011.9
20260502071009 51 357 0.0 0.0 0.00 0.00 0.00 89 1011.9
20260502070509 51 357 0.0 0.0 0.00 0.00 0.00 89 1011.9
20260502070009 51 357 0.0 0.0 0.00 0.00 0.00 89 1011.9
20260502065509 51 357 0.0 0.0 0.00 0.00 0.00 89 1012.0
20260502065021 51 357 0.0 0.0 0.00 0.00 0.00 89 1012.0
20260502064510 51 357 0.0 0.0 0.00 0.00 0.00 88 1012.1
20260502064009 52 357 0.0 0.0 0.00 0.00 0.00 88 1012.3
20260502063509 52 357 0.0 1.0 0.00 0.00 0.00 88 1012.2
20260502063009 52 357 0.0 1.0 0.00 0.00 0.00 88 1012.4
20260502062509 52 357 0.0 1.0 0.00 0.00 0.00 88 1012.3
20260502062009 52 357 0.0 0.0 0.00 0.00 0.00 88 1012.4
20260502061510 52 357 0.0 0.0 0.00 0.00 0.00 88 1012.5
20260502061009 52 357 0.0 0.0 0.00 0.00 0.00 88 1012.6
20260502060511 52 357 0.0 0.0 0.00 0.00 0.00 88 1012.6
20260502060009 52 357 0.0 1.0 0.00 0.00 0.00 87 1012.7
20260502055509 52 357 0.0 1.0 0.00 0.00 0.00 87 1012.7
20260502055011 52 357 0.0 2.0 0.00 0.00 0.00 87 1012.7
20260502054509 52 357 0.0 2.0 0.00 0.00 0.00 87 1012.6
20260502054009 52 357 1.0 2.0 0.00 0.00 0.00 87 1012.7
20260502053520 52 357 0.0 4.0 0.00 0.00 0.00 87 1012.6
20260502053009 52 357 1.0 4.0 0.00 0.00 0.00 87 1012.6
20260502052509 52 357 3.0 4.0 0.00 0.00 0.00 88 1012.6
20260502052009 52 201 0.0 0.0 0.00 0.00 0.00 87 1012.1
20260502051509 52 201 0.0 0.0 0.00 0.00 0.00 87 1012.1
20260502051009 52 201 0.0 0.0 0.00 0.00 0.00 87 1012.1
20260502050509 52 201 0.0 0.0 0.00 0.00 0.00 86 1012.2
20260502050020 52 201 0.0 0.0 0.00 0.00 0.00 86 1012.3
20260502045509 52 201 0.0 0.0 0.00 0.00 0.00 86 1012.3
20260502045009 52 201 0.0 0.0 0.00 0.00 0.00 86 1012.2
20260502044520 52 201 0.0 0.0 0.00 0.00 0.00 86 1012.4
20260502044020 52 201 0.0 0.0 0.00 0.00 0.00 85 1012.3
20260502043509 52 201 0.0 0.0 0.00 0.00 0.00 85 1012.3
20260502043009 53 201 0.0 0.0 0.00 0.00 0.00 84 1012.3
20260502042509 53 201 0.0 0.0 0.00 0.00 0.00 84 1012.3
20260502042010 53 201 0.0 0.0 0.00 0.00 0.00 84 1012.2
20260502041510 53 201 0.0 0.0 0.00 0.00 0.00 84 1012.2
20260502041010 53 201 0.0 1.0 0.00 0.00 0.00 84 1012.3
20260502040510 53 201 0.0 1.0 0.00 0.00 0.00 84 1012.3
20260502040010 53 201 0.0 2.0 0.00 0.00 0.00 83 1012.3
20260502035510 54 201 0.0 2.0 0.00 0.00 0.00 83 1012.4
20260502035020 54 201 1.0 2.0 0.00 0.00 0.00 84 1012.4
20260502034510 54 201 0.0 2.0 0.00 0.00 0.00 83 1012.4
20260502034010 54 201 0.0 2.0 0.00 0.00 0.00 83 1012.5
20260502033510 54 201 0.0 1.0 0.00 0.00 0.00 83 1012.6
20260502033009 54 201 0.0 0.0 0.00 0.00 0.00 82 1012.5
20260502032510 54 201 0.0 2.0 0.00 0.00 0.00 82 1012.6
20260502032010 54 201 0.0 2.0 0.00 0.00 0.00 82 1012.6
20260502031510 54 201 0.0 2.0 0.00 0.00 0.00 82 1012.7
20260502031021 54 201 0.0 2.0 0.00 0.00 0.00 82 1012.7
20260502030509 54 201 0.0 2.0 0.00 0.00 0.00 82 1012.6
20260502030009 54 201 0.0 1.0 0.00 0.00 0.00 82 1012.7
20260502025510 54 201 0.0 1.0 0.00 0.00 0.00 82 1012.7
20260502025009 54 201 0.0 1.0 0.00 0.00 0.00 82 1012.7
20260502024509 55 201 0.0 0.0 0.00 0.00 0.00 81 1012.7
20260502024010 55 201 0.0 0.0 0.00 0.00 0.00 81 1012.7
20260502023509 55 201 0.0 0.0 0.00 0.00 0.00 81 1012.7
20260502023009 55 201 0.0 1.0 0.00 0.00 0.00 81 1012.7
20260502022521 55 201 0.0 3.0 0.00 0.00 0.00 80 1012.6
20260502022032 55 201 1.0 3.0 0.00 0.00 0.00 80 1012.6
20260502021510 56 201 0.0 2.0 0.00 0.00 0.00 80 1012.6
20260502021009 56 201 0.0 2.0 0.00 0.00 0.00 80 1012.5
20260502020509 56 44 1.0 1.0 0.00 0.00 0.00 80 1012.4
20260502020010 56 44 0.0 2.0 0.00 0.00 0.00 80 1012.5
20260502015510 56 44 0.0 2.0 0.00 0.00 0.00 79 1012.5
20260502015010 56 44 0.0 2.0 0.00 0.00 0.00 79 1012.7
20260502014510 56 44 1.0 2.0 0.00 0.00 0.00 78 1012.7
20260502014021 56 44 0.0 2.0 0.00 0.00 0.00 77 1012.7
20260502013510 57 44 0.0 1.0 0.00 0.00 0.00 77 1012.7
20260502013010 57 44 0.0 2.0 0.00 0.00 0.00 76 1012.5
20260502012532 57 44 1.0 3.0 0.00 0.00 0.00 76 1012.6
20260502012010 57 44 1.0 3.0 0.00 0.00 0.00 76 1012.4
20260502011510 57 75 0.0 3.0 0.00 0.00 0.00 75 1012.4
20260502011010 57 75 0.0 3.0 0.00 0.00 0.00 75 1012.4
20260502010510 57 177 1.0 3.0 0.00 0.00 0.00 75 1012.4
20260502010010 57 176 0.0 2.0 0.00 0.00 0.00 74 1012.3
20260502005510 58 176 0.0 2.0 0.00 0.00 0.00 74 1012.2
20260502005021 58 176 0.0 2.0 0.00 0.00 0.00 73 1012.1
20260502004510 58 176 0.0 1.0 0.00 0.00 0.00 73 1011.9
20260502004010 58 176 0.0 1.0 0.00 0.00 0.00 72 1011.7
20260502003510 58 176 0.0 2.0 0.00 0.00 0.00 71 1011.6
20260502003021 58 176 1.0 2.0 0.00 0.00 0.00 70 1011.7
20260502002532 58 176 1.0 2.0 0.00 0.00 0.00 70 1011.8
20260502002021 58 176 0.0 1.0 0.00 0.00 0.00 70 1011.7
20260502001521 59 176 0.0 1.0 0.00 0.00 0.00 68 1011.6
20260502001010 59 183 0.0 1.0 0.00 0.00 0.00 68 1011.4
20260502000532 59 183 0.0 1.0 0.00 0.00 0.00 67 1011.4
20260502000010 59 183 0.0 1.0 0.00 0.00 0.00 68 1011.1
20260501235510 60 61 0.0 2.0 0.00 0.00 0.00 66 1011.0
20260501235010 60 115 1.0 2.0 0.00 0.00 0.00 66 1011.0
20260501234510 60 173 0.0 2.0 0.00 0.00 0.00 66 1011.1
20260501234010 61 173 0.0 2.0 0.00 0.00 0.00 66 1011.0